Regional Weather Roundup
Issued by NWS State College, PA

Home | Current Version | Previous Version | Text Only | Print | Product List | Glossary On
Versions: 1 2 3 4 5 6 7 8 9 10 11 12 13 14 15 16 17 18 19 20 21 22 23 24 25 26 27 28 29 30 31 32 33 34 35 36 37 38 39 40 41 42 43 44 45 46 47 48 49 50
000
ASUS41 KCTP 291610
RWRCTP

REGIONAL WEATHER ROUNDUP
NATIONAL WEATHER SERVICE STATE COLLEGE PA
1200 PM EDT TUE JUL 29 2014

Note: "fair" indicates few or no clouds below 12,000 feet with no
significant weather and/or obstructions to visibility.

* = STATION THAT DOES NOT REPORT PRECIPITATION /E.G. RAIN...SNOW...ETC/
    THUNDER OR FOG.

PAZ002>004-007>009-013>016-020>023-029>032-291700-
WESTERN PENNSYLVANIA

CITY           SKY/WX    TMP DP  RH WIND       PRES   REMARKS
ERIE           CLOUDY    67  46  47 NW7       29.99R
MEADVILLE      PTSUNNY   62  49  62 MISG      30.00R
FRANKLIN*      CLOUDY    59  50  72 W3        30.02R
NEW CASTLE       N/A     63  51  64 CALM      30.02S
BEAVER COUNTY  CLOUDY    63  52  67 N3        30.02R
BUTLER*        CLOUDY    63  52  67 W5        30.03S
PITTSBURGH INT CLOUDY    63  52  67 W9        30.02R
PITTSBURGH     CLOUDY    62  51  67 NW7       30.01S
INDIANA*       CLOUDY    61  50  67 VRB3      30.05S
LATROBE        PTSUNNY   61  52  72 W6        30.03R
WASHINGTON CO* CLOUDY    63  48  59 W8        30.04S
$$

PAZ004>006-010>012-017>019-024>028-033>037-041-042-045-046-049>053-291700-
CENTRAL PENNSYLVANIA

CITY           SKY/WX    TMP DP  RH WIND       PRES   REMARKS
BRADFORD       CLOUDY    58  48  69 W7        29.99R
DUBOIS         CLOUDY    61  52  72 W5        29.99S
CLEARFIELD     CLOUDY    61  50  67 W5        29.99S
JOHNSTOWN      CLOUDY    56  44  64 NW10      30.01S
ALTOONA          N/A    N/A N/A N/A W9        29.99S
STATE COLLEGE  CLOUDY    63  50  63 NW5       29.97
WILLIAMSPORT   CLOUDY    70  51  51 W9        29.92F
SELINSGROVE    CLOUDY    68  53  58 VRB5      29.94S
FT INDIANTOWN  MOSUNNY   70  54  57 VRB6      29.92F
CAPITAL CITY   PTSUNNY   68  53  58 NW8       29.92F
HARRISBURG     PTSUNNY   69  54  58 NW5       29.92S
YORK           CLOUDY    68  55  63 CALM      29.93S
$$

PAZ038>040-043-044-047-048-054-055-060>062-067>071-291700-
EASTERN PENNSYLVANIA

CITY           SKY/WX    TMP DP  RH WIND       PRES   REMARKS
SCRANTON       PTSUNNY   70  47  43 N7        29.92F
MOUNT POCONO   PTSUNNY   63  46  54 NW13G21   29.93S
ALLENTOWN      MOSUNNY   71  51  49 NW10G20   29.90F
QUAKERTOWN*    MOSUNNY   70  54  56 N7        29.92S
READING        PTSUNNY   71  54  54 NW10      29.91S
LANCASTER      PTSUNNY   69  56  62 NW6       29.92S
COATESVILLE    MOSUNNY   70  70 100 NW6       29.93S
POTTSTOWN      MOSUNNY   71  54  54 NW8       29.92S
BLUE BELL      SUNNY     72  55  56 W5        29.90S
DOYLESTOWN     MOSUNNY   71  53  52 NW9       29.90S
WILLOW GROVE   NOT AVBL
NORTH PHILA    SUNNY     74  53  48 NW12      29.91S
PHILADELPHIA   MOSUNNY   74  52  46 NW10      29.90S
$$



USA.gov is the U.S. government's official web portal to all federal, state and local government web resources and services.